Orbital Elements at Epoch 2459200.5 (2020-Dec-17.0) TDB
Reference: JPL 31 (heliocentric ecliptic J2000)
Element | Value | Uncertainty (1-sigma) | Units |
e | .1482124434527043 | 3.3869e-08 | |
a | 2.551986599718113 | 1.0743e-08 | au |
q | 2.173750430115333 | 8.6872e-08 | au |
i | 3.717608594644654 | 3.5571e-06 | deg |
node | 286.6591364651976 | 5.8409e-05 | deg |
peri | 256.166640957738 | 5.9979e-05 | deg |
M | 265.3450946793333 | 1.5338e-05 | deg |
tp | 2459592.022419586320 (2022-Jan-12.52241959) | 6.4245e-05 | TDB |
period | 1489.073076282515 4.08 | 9.4024e-06 2.574e-08 | d yr |
n | .2417611370012433 | 1.5265e-09 | deg/d |
Q | 2.930222769320893 | 1.2335e-08 | au |
|
| | Orbit Determination Parameters
Additional Information
|